Weather Roundup
Issued by NWS

Home | Current Version | Previous Version | Text Only | Print | Product List | Glossary On
Versions: 1 2 3 4 5 6 7 8 9 10 11 12 13 14 15 16 17 18 19 20 21 22 23 24 25 26 27 28 29 30 31 32 33 34 35 36 37 38 39 40 41 42 43 44 45 46 47 48 49 50
000
NZUS93 KARX 280559
HRRWXR

CURRENT HOURLY OBSERVATIONS ACROSS
MUCH OF THE UPPER MISSISSIPPI VALLEY
NATIONAL WEATHER SERVICE LA CROSSE WI
1200 AM CST SUN DEC 28 2014


...SOUTHEAST MINNESOTA...


CITY           SKY/WX    TMP DP  RH WIND       PRES   REMARKS
ROCHESTER      CLEAR      8   4  83 SW10      30.10F WCI  -6
ROCHESTER/MAYO FAIR      13   8  83 W3        30.12S
WINONA         CLEAR     12   9  85 CALM      30.16F
AUSTIN         CLEAR      9   7  92 SW5       30.12F WCI   0
ALBERT LEA     CLEAR     12   9  85 SW3       30.12F
DODGE CENTER   PTCLDY     7   5  92 W9        30.10S WCI  -7
PRESTON        CLEAR     10   6  84 SW8       30.12S WCI  -2
OWATONNA       CLEAR      7   3  85 CALM      30.11F
FARIBAULT      CLEAR      9   5  85 S6        30.12F WCI  -1
$$

...ELSEWHERE IN MINNESOTA...


CITY           SKY/WX    TMP DP  RH WIND       PRES   REMARKS
MINNEAPOLIS    MOCLDY    11   6  81 SW8       30.11F WCI  -1
INTNL FALLS    PTCLDY     7   1  76 NW7       30.01R WCI  -5
DULUTH         FLURRIES  17   9  70 NW9       29.96F WCI   6
RED WING       CLEAR      5   1  85 CALM      30.12F
REDWOOD FALLS  CLEAR     12   7  80 W7        30.10F WCI   1
MANKATO        CLEAR     10   3  72 S7        30.11F WCI   0
WORTHINGTON    CLEAR     10 -31  13 SW7       30.09F WCI   0
FAIRMONT       CLEAR     12   7  79 W9        30.12S WCI   0
$$

...SOUTHWEST WISCONSIN...


CITY           SKY/WX    TMP DP  RH WIND       PRES   REMARKS
LA CROSSE      CLEAR     15   8  73 S6        30.16S WCI   6
PRAIRIE DU CHI CLEAR     19  11  72 W5        30.18F WCI  12
BOSCOBEL       CLEAR     19  12  74 SW6       30.17S WCI  11
LONE ROCK      NOT AVBL
PLATTEVILLE    CLEAR     20  17  86 W10       30.15S WCI   9
FORT MC COY    CLEAR     18  13  82 SW6       30.13F WCI   9
VIROQUA        FAIR      16  12  83 W8        30.11S WCI   5
WIS DELLS      NOT AVBL
$$

...ELSEWHERE IN WISCONSIN...


CITY           SKY/WX    TMP DP  RH WIND       PRES   REMARKS
MILWAUKEE      MOCLDY    30  20  66 NW8       30.07F WCI  22
MADISON        PTCLDY    24  18  77 VRB3      30.11F
GREEN BAY      CLEAR     25  18  74 W16       30.07S WCI  12
EAU CLAIRE     NOT AVBL
BLACK RVR FLS  FAIR      15  11  86 SW3       30.12S
MEDFORD        PTCLDY    12  10  91 W7        30.03S WCI   2
WAUSAU         CLOUDY    16  13  88 W5        30.03F WCI   9
WIS RAPIDS     CLEAR     19  15  84 W7        30.09F WCI  10
MARSHFIELD     CLEAR     15  12  88 W9        30.05F WCI   3
RICE LAKE      CLEAR     12   8  83 SW3       30.07F
$$

...NORTHEAST IOWA...


CITY           SKY/WX    TMP DP  RH WIND       PRES   REMARKS
DECORAH        CLEAR     16  12  86 VRB6      30.14F WCI   7
MASON CITY     CLEAR     13   8  81 W12       30.15F WCI  -1
CHARLES CITY   CLEAR     14  10  85 W9        30.16F WCI   2
OELWEIN        CLEAR     18  14  86 W8        30.17S WCI   7
$$

...ELSEWHERE IN IOWA...


CITY           SKY/WX    TMP DP  RH WIND       PRES   REMARKS
DES MOINES     FAIR      19  14  81 W5        30.20F WCI  12
IOWA CITY      CLEAR     19  16  88 W5        30.21F WCI  12
FORT DODGE     CLEAR     10   7  85 W5        30.18F WCI   2
$$

...NORTHERN ILLINOIS...


CITY           SKY/WX    TMP DP  RH WIND       PRES   REMARKS
CHICAGO-OHARE  CLOUDY    31  24  75 W9        30.09F WCI  23
CHICAGO-MIDWAY CLOUDY    33  25  72 NW12      30.10F WCI  24
MOLINE         CLEAR     24  18  77 W15       30.19S WCI  11
ROCKFORD       CLOUDY    28  21  75 W12       30.14F WCI  18
PEORIA         CLOUDY    30  21  69 NW9       30.19S WCI  22
$$

NOTE: "FAIR" INDICATES FEW OR NO CLOUDS BELOW 12,000 FEET WITH NO
SIGNIFICANT WEATHER AND/OR OBSTRUCTIONS TO VISIBILITY. WIND
SPEEDS ARE IN MILES-PER-HOUR.



USA.gov is the U.S. government's official web portal to all federal, state and local government web resources and services.